Simultaneous Nadir Overpasses (SNOs) Predictions

Prediction of SNOs between GOES-15 and NOAA-20 Satellite Orbit:

Table of predicted SNOs for the next 14.0 days since TLE Epoch: 8/26/2022
Index Date Time (GOES-15) GOES-15 Lat,Lon NOAA-20 Lat,Lon Distance(km) Time Diff (sec)
1 08/26/2022 22:03:27 -0.38,-127.98 0.00,-129.62 187.17 0
2 08/27/2022 21:45:51 -0.38,-127.97 0.28,-124.93 346.51 80
3 08/29/2022 10:07:40 0.38,-127.97 0.86,-130.21 254.43 80
4 08/30/2022 09:46:15 0.38,-127.96 -0.13,-125.68 259.62 80
5 08/31/2022 22:08:13 -0.38,-127.91 -1.04,-130.99 350.85 80
6 09/01/2022 21:52:08 -0.38,-127.89 -0.05,-126.46 163.46 80
7 09/03/2022 10:13:57 0.38,-127.89 1.25,-131.73 437.79 80
8 09/04/2022 09:52:33 0.38,-127.86 0.20,-127.21 75.22 80
9 09/06/2022 21:55:45 -0.37,-127.76 -0.44,-127.98 25.26 80
10 09/07/2022 21:39:41 -0.36,-127.74 0.61,-123.46 488.18 80
11 09/09/2022 10:01:30 0.36,-127.73 0.58,-128.73 113.64 80
